Pontiac, MI

6:44 AM EDT on June 21, 2018 (GMT -0400)
Oakland County International

Weather History for KPTK - June, 2018

Change the Weather History Date:

Thursday, June 14, 2018

  Actual Average Record
Temperature  
Mean Temperature 70 °F -  
Max Temperature 82 °F 75 °F 91 °F (2001)
Min Temperature 57 °F 55 °F 46 °F (2014)
Cooling Degree Days 4    
Growing Degree Days 20 (Base 50)    
Moisture  
Dew Point 49 °F    
Average Humidity 48    
Maximum Humidity 75    
Minimum Humidity 28    
Precipitation  
Precipitation 0.00 in - - ()
Sea Level Pressure  
Sea Level Pressure 30.00 in    
Wind  
Wind Speed 8 mph (WNW)    
Max Wind Speed 16 mph    
Max Gust Speed 26 mph    
Visibility 10 miles    
Events      
Averages and records for this station are not official NWS values.
T = Trace of Precipitation, MM = Missing Value Source: NWS Daily Summary

Daily Weather History Graph

Daily Weather History Graph

Search for Another Location

Airport or City:

Astronomy

Jun. 14, 2018 Rise Set
Actual Time 5:55 AM EDT 9:13 PM EDT
Civil Twilight 5:20 AM EDT 9:48 PM EDT
Nautical Twilight 4:34 AM EDT 10:33 PM EDT
Astronomical Twilight 3:39 AM EDT 11:28 PM EDT
Moon 6:52 AM EDT (6/14) 10:11 PM EDT (6/14)
Length of Visible Light 16h 27m
Length of Day
15h 17m
New Moon, 1% of the Moon is Illuminated
Jun 14
New Moon
Jun 20
First Quarter
Jun 28
Full
Jul 6
Last Quarter
Jul 12
New

Hourly Weather History & Observations

Time (EDT) Temp. Dew Point Humidity Pressure Visibility Wind Dir Wind Speed Gust Speed Precip Events Conditions
12:53 AM 60.1 °F 48.9 °F 67% 29.97 in 10.0 mi West 3.5 mph - N/A   Clear
1:53 AM 61.0 °F 50.0 °F 67% 29.98 in 10.0 mi West 4.6 mph - N/A   Clear
2:53 AM 59.0 °F 50.0 °F 72% 29.97 in 10.0 mi WSW 4.6 mph - N/A   Clear
3:53 AM 57.9 °F 50.0 °F 75% 29.98 in 10.0 mi West 4.6 mph - N/A   Clear
4:53 AM 61.0 °F 46.9 °F 60% 29.98 in 10.0 mi West 8.1 mph - N/A   Clear
5:53 AM 60.1 °F 46.0 °F 60% 29.98 in 10.0 mi WNW 8.1 mph - N/A   Clear
6:53 AM 63.0 °F 46.9 °F 56% 30.00 in 10.0 mi NW 11.5 mph - N/A   Partly Cloudy
7:53 AM 64.9 °F 48.0 °F 54% 30.01 in 10.0 mi West 10.4 mph - N/A   Partly Cloudy
8:53 AM 69.1 °F 48.9 °F 49% 30.03 in 10.0 mi WNW 15.0 mph 20.7 mph N/A   Partly Cloudy
9:53 AM 72.0 °F 50.0 °F 46% 30.02 in 10.0 mi WNW 13.8 mph - N/A   Partly Cloudy
10:53 AM 75.0 °F 51.1 °F 43% 30.02 in 10.0 mi NW 10.4 mph - N/A   Clear
11:53 AM 79.0 °F 48.9 °F 35% 30.02 in 10.0 mi WNW 16.1 mph - N/A   Partly Cloudy
12:53 PM 80.1 °F 48.0 °F 32% 30.02 in 10.0 mi NW 12.7 mph - N/A   Mostly Cloudy
1:53 PM 82.0 °F 46.9 °F 29% 30.01 in 10.0 mi NW 12.7 mph 26.5 mph N/A   Mostly Cloudy
2:53 PM 82.9 °F 46.9 °F 28% 30.01 in 10.0 mi WNW 16.1 mph 21.9 mph N/A   Mostly Cloudy
3:53 PM 82.0 °F 46.0 °F 28% 30.01 in 10.0 mi NW 11.5 mph - N/A   Mostly Cloudy
4:53 PM 82.9 °F 46.9 °F 28% 30.00 in 10.0 mi WNW 12.7 mph - N/A   Mostly Cloudy
5:53 PM 82.0 °F 46.9 °F 29% 30.00 in 10.0 mi WNW 11.5 mph - N/A   Overcast
6:53 PM 81.0 °F 46.9 °F 30% 29.99 in 10.0 mi WNW 9.2 mph - N/A   Mostly Cloudy
7:53 PM 80.1 °F 48.0 °F 32% 29.98 in 10.0 mi NW 8.1 mph - N/A   Overcast
8:53 PM 72.0 °F 53.1 °F 51% 29.98 in 10.0 mi East 8.1 mph - N/A   Mostly Cloudy
9:53 PM 69.1 °F 51.1 °F 53% 29.99 in 10.0 mi East 4.6 mph - N/A   Overcast
10:53 PM 64.9 °F 52.0 °F 63% 30.01 in 10.0 mi East 4.6 mph - N/A   Mostly Cloudy
11:53 PM 64.0 °F 50.0 °F 60% 30.03 in 10.0 mi East 3.5 mph - N/A   Mostly Cloudy